OKEAN-O

Last updated on Thu Nov 21 2024 00:02:12 GMT+0000 (Coordinated Universal Time)

1 25860U 99039A 24325.58951078 .00001309 00000+0 18369-3 0 9992 2 25860 98.0156 17.5902 0001905 85.4283 274.7146 14.79151962364279
UTC large
Height (km)
Speed (km/s)
/
Latitude / Longitude
Inclination (degrees)
Orbital Period (minutes)
Azimuth
Elevation
Range (km)
Doppler Factor

Next 0 passes for location: London (51.5072 / 0.1276)

Sorry there are no passes over London.